Location: Ferchesar
(52.6477°N, 12.4298°E)
Time: 10:35:59
(UTC+01:00)

A-11 Canister half - Pass Details

Date: 07 December 2021
Orbit: 1516 x 1684 km, 47.2° (Epoch: 22 January)

Event Time Altitude Azimuth Distance (km) Brightness Sun altitude
Rises 05:04:56 0° 196° (SSW) 4,721 11.4 -26.3°
Reaches altitude 10° 05:08:42 10° 183° (S) 3,766 11.0 -25.7°
Maximum altitude 05:15:51 24° 134° (SE) 2,847 10.9 -24.7°
Drops below altitude 10° 05:23:11 10° 86° (E) 3,879 12.2 -23.5°
Sets 05:27:06 0° 74° (ENE) 4,893 12.7 -23.0°
